TimeMDT,TemperatureF,Dew PointF,Humidity,Sea Level PressureIn,VisibilityMPH,Wind Direction,Wind SpeedMPH,Gust SpeedMPH,PrecipitationIn,Events,Conditions,WindDirDegrees,DateUTC
12:53 AM,57.0,28.0,33,29.75,10.0,SW,10.4,-,N/A,,Clear,230,2012-10-13 06:53:00
1:53 AM,57.9,28.9,33,29.76,10.0,WSW,13.8,-,N/A,,Clear,250,2012-10-13 07:53:00
2:53 AM,54.0,30.0,40,29.78,10.0,West,10.4,-,N/A,,Clear,260,2012-10-13 08:53:00
3:53 AM,53.1,30.9,43,29.78,10.0,West,8.1,-,N/A,,Clear,270,2012-10-13 09:53:00
4:53 AM,51.1,32.0,48,29.81,10.0,WSW,10.4,-,N/A,,Clear,240,2012-10-13 10:53:00
5:53 AM,52.0,33.1,49,29.82,10.0,SW,6.9,-,N/A,,Clear,220,2012-10-13 11:53:00
6:53 AM,50.0,34.0,54,29.83,10.0,SW,8.1,-,N/A,,Clear,220,2012-10-13 12:53:00
7:53 AM,51.1,37.9,61,29.87,10.0,SW,13.8,-,0.00,,Overcast,220,2012-10-13 13:53:00
8:53 AM,52.0,39.9,63,29.92,10.0,SSW,10.4,-,0.00,Rain,Light Rain,210,2012-10-13 14:53:00
9:53 AM,51.1,42.1,71,29.95,10.0,SSW,13.8,-,0.03,Rain,Light Rain,200,2012-10-13 15:53:00
10:53 AM,54.0,43.0,66,29.94,10.0,SSW,17.3,-,0.00,,Partly Cloudy,210,2012-10-13 16:53:00
11:53 AM,60.8,41.0,48,29.94,10.0,SW,21.9,-,N/A,,Clear,230,2012-10-13 17:53:00
12:53 PM,64.0,39.0,40,29.88,10.0,WSW,23.0,32.2,N/A,,Clear,250,2012-10-13 18:53:00
1:53 PM,64.0,37.9,38,29.90,10.0,WSW,25.3,35.7,N/A,,Clear,240,2012-10-13 19:53:00
2:53 PM,64.0,37.0,37,29.91,10.0,WSW,29.9,35.7,N/A,,Clear,240,2012-10-13 20:53:00
3:53 PM,66.0,37.9,36,29.91,10.0,WSW,23.0,29.9,N/A,,Clear,240,2012-10-13 21:53:00
4:53 PM,62.1,37.9,41,29.95,10.0,WSW,18.4,27.6,N/A,,Clear,240,2012-10-13 22:53:00
6:53 PM,57.0,37.0,47,30.01,10.0,WSW,16.1,-,N/A,,Clear,240,2012-10-14 00:53:00
7:53 PM,55.9,37.0,49,30.04,10.0,WSW,18.4,-,N/A,,Clear,240,2012-10-14 01:53:00
8:53 PM,54.0,37.0,53,30.08,10.0,SW,13.8,-,N/A,,Clear,230,2012-10-14 02:53:00
10:53 PM,51.1,36.0,56,30.07,10.0,SW,17.3,-,N/A,,Clear,230,2012-10-14 04:53:00
11:53 PM,50.0,37.9,63,30.06,10.0,SW,13.8,-,N/A,,Clear,220,2012-10-14 05:53:00